Regional Weather Roundup
Issued by NWS

Home | Current Version | Previous Version | Text Only | Print | Product List | Glossary On
Versions: 1 2 3 4 5 6 7 8 9 10 11 12 13 14 15 16 17 18 19 20 21 22 23 24 25 26 27 28 29 30 31 32 33 34 35 36 37 38 39 40 41 42 43 44 45 46 47 48 49 50
000
ASUS46 KSEW 292310
RWRWA

WASHINGTON REGIONAL WEATHER ROUNDUP
NATIONAL WEATHER SERVICE SEATTLE WA
400 PM PDT FRI JUL 29 2016

NOTE:"FAIR" INDICATES FEW OR NO CLOUDS BELOW 12,000 FEET WITH NO
SIGNIFICANT WEATHER AND/OR OBSTRUCTIONS TO VISIBILITY.

WAZ505-507>509-300000-
SEATTLE, TACOMA, EVERETT, AND VICINITY

CITY           SKY/WX    TMP DP  RH WIND       PRES   REMARKS
EVERETT        SUNNY     83  55  38 N8G17     29.96F
BOEING FIELD   SUNNY     86  55  34 NW10      29.92F
RENTON         SUNNY     86  61  42 NW10      29.91F
SEATAC AIRPORT MOSUNNY   88  55  32 N14G20    29.95F
JBLM-MCCHORD   SUNNY     88  59  38 NW9       29.93F
PUYALLUP       FAIR      88  57  35 VRB5G12   29.95F
BREMERTON      SUNNY     88  59  37 NE7       29.96F
JBLM-FT LEWIS  SUNNY     88  60  39 W10       29.92F
TACOMA NARROWS SUNNY     83  57  41 NE7       29.94F
$$

WAZ001-503-506-510-514-515-300000-
NORTH INTERIOR

CITY           SKY/WX    TMP DP  RH WIND       PRES   REMARKS
BELLINGHAM     SUNNY     77  59  53 VRB3      29.94F
FRIDAY HARBOR  SUNNY     78  58  49 E3        29.95F
EASTSOUND      SUNNY     73  57  56 N6        29.93F
PORT ANGELES   SUNNY     73  56  54 VRB7      29.97F
EDIZ HOOK      FAIR      60  53  76 NW14G24   29.96F
PORT TOWNSEND  FAIR      82  55  39 NW7G13    29.94F
NAS WHIDBEY    MOSUNNY   70  56  61 W8        29.98F
ARLINGTON      SUNNY     84  59  42 W8        29.93F
BURLINGTON     SUNNY     81  57  44 NW15      29.93F
$$

WAZ020-022-039-040-504-511-512-300000-
SOUTHWEST INTERIOR

CITY           SKY/WX    TMP DP  RH WIND       PRES   REMARKS
SHELTON        SUNNY     92  58  31 S9        29.90F HX  91
OLYMPIA        SUNNY     90  55  30 NE7       29.92F
CHEHALIS       FAIR      93  63  36 VRB6G12   29.91F HX  94
KELSO          SUNNY     85  63  47 W16G22    29.91F
VANCOUVER      SUNNY     92  56  29 NW16G22   29.88F HX  90
SCAPPOOSE, OR  SUNNY     93  56  28 N15       29.87F HX  91
PORTLAND, OR   SUNNY     93  56  28 NW15      29.88F HX  91
$$

WAZ021-516-517-300000-
WASHINGTON COAST

CITY           SKY/WX    TMP DP  RH WIND       PRES   REMARKS
FORKS          SUNNY     70  59  68 NW10      30.00S
HOQUIAM        SUNNY     67  59  75 SW16      29.99F HAZE
ASTORIA, OR    SUNNY     68  57  68 NW16G24   30.01S
$$

WAZ019-023-024-040-518-519-300000-
CASCADE MOUNTAINS AND COLUMBIA GORGE

CITY           SKY/WX    TMP DP  RH WIND       PRES   REMARKS
STAMPEDE PASS  SUNNY     77  49  37 VRB6      30.07F
TROUTDALE, OR  SUNNY     94  58  29 VRB7      29.86F HX  93
THE DALLES, OR SUNNY    100  51  19 NW14      29.76F HX  97
$$

WAZ026-027-041>044-520-521-300000-
EAST SLOPES

CITY           SKY/WX    TMP DP  RH WIND       PRES   REMARKS
OMAK           MOSUNNY   99  41  13 S7        29.78F HX  94
WENATCHEE      SUNNY     99  46  16 E5        29.78F HX  95
ELLENSBURG     SUNNY     97  49  19 NW16G24   29.85F HX  94
YAKIMA         SUNNY    102  42  13 S6        29.79F HX  97
$$

WAZ028-034-035-300000-
COLUMBIA BASIN

CITY           SKY/WX    TMP DP  RH WIND       PRES   REMARKS
EPHRATA        SUNNY    100  49  17 S9G18     29.80F HX  97
MOSES LAKE     SUNNY    101  47  16 SW13      29.81F HX  97
PASCO          SUNNY    103  50  17 VRB6      29.75F HX 100
HERMISTON, OR  SUNNY    103  47  15 NW5       29.76F HX  99
$$

WAZ036>038-300000-
NORTHEAST WASHINGTON

CITY           SKY/WX    TMP DP  RH WIND       PRES   REMARKS
SPOKANE GEIGER PTSUNNY   96  42  15 SW14      29.88F HX  92
SPOKANE FELTS  MOSUNNY   96  46  18 S6        29.85F HX  92
FAIRCHILD AFB  MOSUNNY   92  45  19 CALM      29.89F
COEURDALENE,ID SUNNY     93  48  21 CALM      29.85F HX  90
DEER PARK      MOSUNNY   94  43  17 CALM      29.87F HX  90
$$

WAZ029>033-300000-
SOUTHEAST WASHINGTON

CITY           SKY/WX    TMP DP  RH WIND       PRES   REMARKS
PULLMAN        SUNNY     94  44  17 W6        29.92F HX  90
LEWISTON, ID   SUNNY    101  38  11 W5        29.81F HX  95
WALLA WALLA    SUNNY    100  46  16 SW6       29.80F HX  96
PENDLETON, OR  SUNNY    101  41  12 W7        29.81F HX  96
$$



USA.gov is the U.S. government's official web portal to all federal, state and local government web resources and services.